Weather History for KRQE - May, 2013

Change the Weather History Date:

Sunday, May 5, 2013

  Actual Average Record
Temperature  
Mean Temperature 55 °F -  
Max Temperature 66 °F 68 °F 87 °F (1947)
Min Temperature 44 °F 35 °F 21 °F (1950)
Degree Days  
Heating Degree Days 10    
Growing Degree Days 5 (Base 50)    
Moisture  
Dew Point 14 °F    
Average Humidity 19    
Maximum Humidity 27    
Minimum Humidity 12    
Precipitation  
Precipitation 0.00 in - - ()
Sea Level Pressure  
Sea Level Pressure 29.79 in    
Wind  
Wind Speed 6 mph (SW)    
Max Wind Speed 20 mph    
Max Gust Speed 29 mph    
Visibility 10 miles    
Events      
Averages and records for this station are not official NWS values.
T = Trace of Precipitation, MM = Missing Value Source: NWS Daily Summary

Daily Weather History Graph

Daily Weather History Graph

Search for Another Location

Airport or City:

Trip Planner

Search our weather history database for the weather conditions in past years. The results will help you decide how hot, cold, wet, or windy it might be!

Date:

Astronomy

May. 05, 2013 Rise Set
Actual Time 6:19 AM MDT 8:06 PM MDT
Civil Twilight 5:52 AM MDT 8:34 PM MDT
Nautical Twilight 5:18 AM MDT 9:07 PM MDT
Astronomical Twilight 4:43 AM MDT 9:43 PM MDT
Moon 3:43 AM MDT (5/5) 4:16 PM MDT (5/5)
Length of Visible Light 14h 41m
Length of Day
13h 46m
Waning Crescent, 17% of the Moon is Illuminated
May 5
Waning Crescent
May 9
New
May 17
First Quarter
May 24
Full
May 31
Last Quarter

Hourly Weather History & Observations

Time (MDT) Temp. Windchill Dew Point Humidity Pressure Visibility Wind Dir Wind Speed Gust Speed Precip Events Conditions
12:53 AM 51.1 °F - 8.1 °F 18% 29.73 in 10.0 mi Calm Calm - N/A   Clear
1:53 AM 51.1 °F - 9.0 °F 18% 29.72 in 10.0 mi South 3.5 mph - N/A   Clear
2:53 AM 46.9 °F - 10.0 °F 22% 29.74 in 10.0 mi Calm Calm - N/A   Clear
3:53 AM 44.1 °F - 12.0 °F 27% 29.77 in 10.0 mi Calm Calm - N/A   Clear
4:53 AM 46.0 °F 44.8 °F 10.9 °F 24% 29.77 in 10.0 mi NNW 3.5 mph - N/A   Partly Cloudy
5:53 AM 45.0 °F - 12.0 °F 26% 29.79 in 10.0 mi Calm Calm - N/A   Scattered Clouds
7:53 AM 51.1 °F - 15.1 °F 24% 29.84 in 10.0 mi Calm Calm - N/A   Clear
8:53 AM 55.0 °F - 14.0 °F 20% 29.87 in 10.0 mi South 8.1 mph - N/A   Clear
9:53 AM 61.0 °F - 15.1 °F 17% 29.85 in 10.0 mi SSW 15.0 mph 21.9 mph N/A   Clear
10:53 AM 63.0 °F - 16.0 °F 16% 29.84 in 10.0 mi South 15.0 mph 26.5 mph N/A   Clear
11:53 AM 66.0 °F - 15.1 °F 14% 29.83 in 10.0 mi South 18.4 mph 26.5 mph N/A   Clear
12:53 PM 64.9 °F - 15.1 °F 15% 29.81 in 10.0 mi SW 10.4 mph 28.8 mph N/A   Clear
1:53 PM 64.9 °F - 10.9 °F 12% 29.80 in 10.0 mi WSW 16.1 mph 21.9 mph N/A   Partly Cloudy
2:53 PM 66.0 °F - 15.1 °F 14% 29.80 in 10.0 mi West 13.8 mph 26.5 mph N/A   Scattered Clouds
3:53 PM 64.9 °F - 16.0 °F 15% 29.81 in 10.0 mi WSW 12.7 mph - N/A   Mostly Cloudy
4:53 PM 64.9 °F - 16.0 °F 15% 29.79 in 10.0 mi South 12.7 mph 18.4 mph N/A   Mostly Cloudy
5:53 PM 64.9 °F - 12.9 °F 13% 29.78 in 10.0 mi SW 19.6 mph 28.8 mph N/A   Overcast
6:53 PM 64.0 °F - 15.1 °F 15% 29.79 in 10.0 mi WSW 19.6 mph 24.2 mph N/A   Mostly Cloudy
7:53 PM 60.1 °F - 17.1 °F 19% 29.79 in 10.0 mi SSW 15.0 mph 23.0 mph N/A   Mostly Cloudy
8:53 PM 59.0 °F - 17.1 °F 20% 29.78 in 10.0 mi SSW 8.1 mph - N/A   Overcast
9:53 PM 57.9 °F - 19.0 °F 22% 29.78 in 10.0 mi SW 8.1 mph - N/A   Overcast
10:53 PM 55.0 °F - 19.9 °F 25% 29.79 in 10.0 mi Calm Calm - N/A   Overcast
11:53 PM 55.9 °F - 19.9 °F 25% 29.75 in 10.0 mi SW 6.9 mph - N/A   Overcast